Regional Weather Roundup
Issued by NWS

Home | Current Version | Previous Version | Graphics & Text | Print | Product List | Glossary On
Versions: 1 2 3 4 5 6 7 8 9 10 11 12 13 14 15 16 17 18 19 20 21 22 23 24 25 26 27 28 29 30 31 32 33 34 35 36 37 38 39 40 41 42 43 44 45 46 47 48 49 50
000
ASUS43 KOAX 190210
RWRNE

WEATHER ROUNDUP FOR NEBRASKA
NATIONAL WEATHER SERVICE OMAHA NE
800 PM CST SUN FEB 18 2018

NOTES: SATELLITE DATA IS BEING USED TO AUGMENT CLOUD COVER ABOVE
       12000 FEET.
       "FAIR" INDICATES FEW OR NO CLOUDS BELOW 12,000 FEET WITH NO
       SIGNIFICANT WEATHER AND/OR OBSTRUCTIONS TO VISIBILITY.


NEZ001>004-019>022-054>056-190300-
NEBRASKA PANHANDLE

CITY           SKY/WX    TMP DP  RH WIND       PRES   REMARKS
SCOTTSBLUFF    CLOUDY    17  10  74 NE20G30   29.74R WCI   1
ALLIANCE       CLOUDY    14  10  84 N22G32    29.72R WCI  -4
CHADRON        LGT SNOW  11   6  81 NE20      29.85R WCI  -7
GORDON         FLURRIES  12   7  79 N18G26    29.79R WCI  -6
KIMBALL        CLOUDY    21  20  96 N16G22    29.61R WCI   7
SIDNEY         CLOUDY    22  19  89 N28G33    29.60R WCI   4
$$

NEZ057>060-069>072-079>082-190300-
SOUTHWEST NEBRASKA

CITY           SKY/WX    TMP DP  RH WIND       PRES   REMARKS
NORTH PLATTE   CLOUDY    28  22  78 N25G38    29.59R WCI  13
IMPERIAL       CLOUDY    30  27  88 NE25G36   29.53R WCI  16
LEXINGTON      CLEAR     32  28  83 N24G30    29.57R WCI  19
MCCOOK         MOCLDY    38  31  76 NE22G30   29.50R WCI  27
OGALLALA       CLOUDY    26  23  85 N31       29.60R WCI  10
$$

NEZ005>010-023>029-035>040-094-190300-
NORTH CENTRAL NEBRASKA

CITY           SKY/WX    TMP DP  RH WIND       PRES   REMARKS
VALENTINE      FLURRIES  19  13  77 N20G25    29.81R WCI   3
AINSWORTH      CLOUDY    19  18  96 N24G35    29.74S WCI   2
BROKEN BOW     CLOUDY    29  24  82 N26G40    29.61S WCI  14
O`NEILL        CLOUDY    26  23  88 N18G29    29.72S WCI  13
ORD            CLOUDY    29  25  85 N25G33    29.63F WCI  14
THEDFORD       CLOUDY    23  19  87 N21G30    29.69R WCI   7
$$

NEZ041-046>049-061>064-073>077-083>087-190300-
SOUTH CENTRAL NEBRASKA

CITY           SKY/WX    TMP DP  RH WIND       PRES   REMARKS
GRAND ISLAND   CLEAR     36  29  75 N17       29.61R WCI  26
AURORA         CLEAR     37  30  74 N20G31    29.60R WCI  27
HASTINGS       CLOUDY    41  31  67 N18G30    29.58R
HEBRON         PTCLDY    53  44  71 S16G24    29.53S
HOLDREGE       CLOUDY    37  30  77 NE22G31   29.54R WCI  26
KEARNEY        CLEAR     33  28  81 N21       29.58R WCI  21
YORK           CLEAR     39  37  93 N13       29.60R WCI  32
$$

NEZ011>018-030>034-042>045-190300-
NORTHEAST NEBRASKA

CITY           SKY/WX    TMP DP  RH WIND       PRES   REMARKS
NORFOLK        CLOUDY    31  27  85 N22       29.67R WCI  18
ALBION         MOCLDY    32  27  82 N15G24    29.65R WCI  22
BLAIR          CLEAR     47  38  71 S10       29.60S
COLUMBUS       CLEAR     35  29  78 N17G25    29.63R WCI  25
FREMONT        CLEAR     45  37  72 SE5       29.60R
TEKAMAH        CLEAR     36  32  85 S5        29.61R WCI  32
WAYNE          PTCLDY    32  31  96 N14G21    29.67R WCI  22
$$

NEZ050>053-065>068-078-088>093-190300-
SOUTHEAST NEBRASKA

CITY           SKY/WX    TMP DP  RH WIND       PRES   REMARKS
LINCOLN        CLOUDY    45  37  73 SE6       29.60R
OMAHA EPPLEY   CLEAR     47  37  68 S9        29.61R
BEATRICE       PTCLDY    51  43  74 S16G22    29.59R
FALLS CITY     CLOUDY    53  40  61 S13G23    29.64R
NEBRASKA CITY  CLOUDY    47  40  75 S10       29.63R
PLATTSMOUTH    CLOUDY    47  40  76 SE7       29.62R
$$

NEZ044-045-051>053-067-190300-
OMAHA AREA

CITY           SKY/WX    TMP DP  RH WIND       PRES   REMARKS
OMAHA EPPLEY   CLEAR     47  37  68 S9        29.61R
BLAIR          CLEAR     47  38  71 S10       29.60S
FREMONT        CLEAR     45  37  72 SE5       29.60R
MILLARD        CLEAR     48  38  70 SE6       29.61S
OFFUTT AFB     CLOUDY    44  37  78 SE9       29.61R
PLATTSMOUTH    CLOUDY    47  40  76 SE7       29.62R
WAHOO          FAIR      40  35  83 SE7       29.60R WCI  35
$$



USA.gov is the U.S. government's official web portal to all federal, state and local government web resources and services.